Location: Recife
(8.0585°S, 34.8848°W)
Time: 09:34:26
(UTC-03:00)

Altair - Pass Details

Date: 20 April 2026
Orbit: 1501 x 1682 km, 47.2° (Epoch: 11 May)

Event Time Altitude Azimuth Distance (km) Brightness Sun altitude
Rises 18:42:36 0° 347° (NNW) 4,697 10.3 -22.1°
Reaches altitude 10° 18:46:27 10° 360° (N) 3,692 9.6 -23.1°
Maximum altitude 18:53:35 25° 51° (NE) 2,677 8.4 -24.8°
Enters shadow 18:53:41 25° 52° (NE) 2,677 8.4 -24.8°
